Location: Sweetwater (historical)
(38.4624°N, 119.1749°W)
Time: 13:35:45
(UTC+00:00)

COSMO-SKYMED 1 - Pass Details

Date: 13 August 2020
Orbit: 621 x 623 km, 97.9° (Epoch: 21 September)

Event Time Altitude Azimuth Distance (km) Brightness Sun altitude
Rises 12:39:10 0° 147° (SSE) 2,890 6.1 -6.4°
Reaches altitude 10° 12:41:27 10° 140° (SE) 1,989 5.4 -6.0°
Maximum altitude 12:45:28 38° 72° (ENE) 951 4.4 -5.3°
Drops below altitude 10° 12:49:30 10° 4° (N) 2,002 5.6 -4.6°
Sets 12:51:48 0° 357° (N) 2,912 6.3 -4.1°
